Shelby, NC

2:53 PM EDT on September 15, 2019 (GMT -0400)
Shelby Municipal

Weather History for KEHO - August, 2019

Change the Weather History Date:

Tuesday, August 20, 2019

  Actual Average (WUND) Record (WUND)
Temperature  
Mean Temperature 74 °F -  
Max Temperature 79 °F - - (-1)
Min Temperature 68 °F - - (-1)
Cooling Degree Days 8    
Growing Degree Days 24 (Base 50)    
Moisture  
Dew Point 70 °F    
Average Humidity 89    
Maximum Humidity 100    
Minimum Humidity 71    
Precipitation  
Precipitation 0.01 in - - ()
Sea Level Pressure  
Sea Level Pressure 30.14 in    
Wind  
Wind Speed 2 mph (SSE)    
Max Wind Speed 13 mph    
Max Gust Speed 16 mph    
Visibility 9 miles    
Events Fog , Rain    
Averages and records for this station are not official NWS values.
T = Trace of Precipitation, MM = Missing Value Source: NWS Daily Summary

Daily Weather History Graph

Daily Weather History Graph

Search for Another Location

Airport or City:

Astronomy

Aug. 20, 2019 Rise Set
Actual Time 6:49 AM EDT 8:09 PM EDT
Civil Twilight 6:23 AM EDT 8:35 PM EDT
Nautical Twilight 5:51 AM EDT 9:07 PM EDT
Astronomical Twilight 5:18 AM EDT 9:40 PM EDT
Moon 11:07 PM EDT (8/20) 11:16 AM EDT (8/20)
Length of Visible Light 14h 12m
Length of Day
13h 19m
Waning Gibbous, 78% of the Moon is Illuminated
Aug 20
Waning Gibbous
Aug 23
Last Quarter
Aug 30
New
Sep 5
First Quarter
Sep 14
Full

Hourly Weather History & Observations

Time (EDT) Temp. Dew Point Humidity Pressure Visibility Wind Dir Wind Speed Gust Speed Precip Events Conditions
12:35 AM 70.0 °F 68.9 °F 96% 30.12 in 10.0 mi Calm Calm - N/A   Clear
12:55 AM 69.8 °F 68.9 °F 97% 30.11 in 10.0 mi WNW 3.5 mph - N/A   Clear
1:15 AM 70.3 °F 68.5 °F 94% 30.12 in 10.0 mi Calm Calm - N/A   Scattered Clouds
1:35 AM 69.6 °F 68.5 °F 96% 30.12 in 10.0 mi Calm Calm - N/A   Scattered Clouds
1:55 AM 69.1 °F 68.5 °F 98% 30.12 in 10.0 mi North 4.6 mph - N/A   Clear
2:15 AM 69.8 °F 68.9 °F 97% 30.12 in 10.0 mi Calm Calm - N/A   Clear
2:35 AM 69.6 °F 68.9 °F 98% 30.12 in 10.0 mi Calm Calm - N/A   Clear
2:55 AM 69.1 °F 68.9 °F 99% 30.12 in 10.0 mi Calm Calm - N/A   Clear
3:15 AM 69.1 °F 68.9 °F 99% 30.12 in 10.0 mi Calm Calm - N/A   Clear
3:35 AM 68.9 °F 68.9 °F 100% 30.12 in 7.0 mi Calm Calm - N/A   Clear
4:15 AM 68.9 °F 68.9 °F 100% 30.12 in 7.0 mi Calm Calm - N/A   Clear
4:35 AM 69.1 °F 68.9 °F 99% 30.12 in 7.0 mi Calm Calm - N/A   Clear
4:55 AM 69.3 °F 68.9 °F 99% 30.13 in 10.0 mi Calm Calm - N/A   Clear
5:15 AM 69.3 °F 68.9 °F 99% 30.13 in 10.0 mi South 3.5 mph - N/A   Clear
5:35 AM 69.1 °F 68.9 °F 99% 30.14 in 10.0 mi South 3.5 mph - N/A   Clear
5:55 AM 69.4 °F 68.9 °F 98% 30.13 in 10.0 mi Calm Calm - N/A   Clear
6:35 AM 69.1 °F 68.9 °F 99% 30.13 in 10.0 mi Calm Calm - N/A   Clear
6:55 AM 68.9 °F 68.9 °F 100% 30.14 in 7.0 mi Calm Calm - N/A   Clear
7:15 AM 68.9 °F 68.9 °F 100% 30.14 in 5.0 mi Calm Calm - N/A   Clear
7:35 AM 69.3 °F 69.1 °F 99% 30.15 in 7.0 mi Calm Calm - N/A   Clear
7:55 AM 69.6 °F 69.3 °F 99% 30.15 in 7.0 mi Calm Calm - N/A   Clear
8:15 AM 69.8 °F 69.4 °F 99% 30.15 in 7.0 mi Calm Calm - N/A   Clear
8:35 AM 70.2 °F 69.8 °F 99% 30.16 in 7.0 mi Calm Calm - N/A   Clear
8:55 AM 70.5 °F 69.6 °F 97% 30.17 in 10.0 mi Calm Calm - N/A   Clear
9:15 AM 71.6 °F 69.8 °F 94% 30.17 in 10.0 mi SSE 4.6 mph - N/A   Clear
9:35 AM 73.0 °F 70.2 °F 91% 30.17 in 10.0 mi Calm Calm - N/A   Scattered Clouds
9:55 AM 74.5 °F 70.3 °F 87% 30.16 in 10.0 mi Calm Calm - N/A   Mostly Cloudy
10:15 AM 75.7 °F 69.8 °F 82% 30.16 in 10.0 mi Calm Calm - N/A   Mostly Cloudy
10:35 AM 76.1 °F 70.7 °F 83% 30.16 in 10.0 mi South 4.6 mph - N/A   Mostly Cloudy
10:55 AM 77.0 °F 69.8 °F 78% 30.16 in 10.0 mi Calm Calm - N/A   Mostly Cloudy
11:15 AM 77.9 °F 70.7 °F 78% 30.16 in 10.0 mi South 3.5 mph - N/A   Scattered Clouds
11:35 AM 78.1 °F 70.9 °F 78% 30.16 in 10.0 mi SSE 4.6 mph - N/A   Mostly Cloudy
11:55 AM 79.3 °F 69.8 °F 72% 30.17 in 10.0 mi South 4.6 mph - N/A   Scattered Clouds
12:15 PM 79.2 °F 69.1 °F 71% 30.17 in 10.0 mi South 4.6 mph - N/A   Mostly Cloudy
12:35 PM 78.3 °F 70.3 °F 77% 30.17 in 10.0 mi WSW 5.8 mph - N/A   Overcast
12:55 PM 78.1 °F 70.9 °F 78% 30.17 in 7.0 mi Calm Calm - N/A Rain Rain
1:15 PM 77.2 °F 71.1 °F 81% 30.17 in 10.0 mi South 3.5 mph - N/A   Overcast
1:35 PM 76.6 °F 71.4 °F 84% 30.17 in 10.0 mi SSE 3.5 mph - N/A   Overcast
1:55 PM 77.5 °F 72.0 °F 83% 30.16 in 10.0 mi Calm Calm - N/A   Overcast
2:15 PM 77.7 °F 70.9 °F 79% 30.16 in 10.0 mi SSE 4.6 mph - N/A   Overcast
2:55 PM 79.3 °F 71.1 °F 76% 30.14 in 10.0 mi SSE 5.8 mph - N/A   Scattered Clouds
3:15 PM 79.0 °F 71.6 °F 78% 30.13 in 10.0 mi SE 3.5 mph - N/A   Mostly Cloudy
3:35 PM 79.0 °F 72.0 °F 79% 30.12 in 10.0 mi South 3.5 mph - N/A   Mostly Cloudy
3:55 PM 78.3 °F 72.1 °F 81% 30.12 in 10.0 mi South 3.5 mph - N/A Rain Light Rain
4:15 PM 77.0 °F 72.7 °F 86% 30.12 in 10.0 mi SSW 5.8 mph - N/A   Scattered Clouds
4:35 PM 77.2 °F 73.0 °F 87% 30.12 in 10.0 mi South 5.8 mph - N/A   Clear
4:55 PM 77.2 °F 73.4 °F 88% 30.12 in 10.0 mi South 3.5 mph - N/A   Clear
5:15 PM 78.1 °F 73.2 °F 85% 30.11 in 10.0 mi SSE 4.6 mph - N/A   Scattered Clouds
5:35 PM 79.3 °F 72.1 °F 79% 30.10 in 10.0 mi ESE 5.8 mph - N/A   Scattered Clouds
5:55 PM 79.7 °F 71.6 °F 76% 30.11 in 10.0 mi SE 4.6 mph - N/A   Clear
6:15 PM 79.5 °F 71.2 °F 76% 30.10 in 10.0 mi SE 3.5 mph - N/A   Scattered Clouds
6:35 PM 79.7 °F 70.7 °F 74% 30.10 in 10.0 mi SSE 4.6 mph - N/A   Mostly Cloudy
6:55 PM 79.0 °F 70.3 °F 75% 30.11 in 10.0 mi South 4.6 mph - N/A   Overcast
7:15 PM 77.2 °F 70.3 °F 79% 30.11 in 10.0 mi SSE 12.7 mph 16.1 mph N/A Rain Rain
7:35 PM 72.7 °F 70.7 °F 93% 30.11 in 10.0 mi SSE 6.9 mph - 0.01 in Rain Light Rain
11:15 PM 70.7 °F 70.7 °F 100% 30.13 in 0.5 mi Calm Calm - N/A Fog Fog